| time (UTC) | temp F | wind direction | speed MPH | gust MPH | rain 1hr in | rain 24hr in | rain mn in | humidity % | barometer mb |
| 20260504231535 | 55 | 181 | 18.0 | 12.0 | 0.00 | 0.00 | 0.00 | 38 | |
| 20260504231037 | 55 | 194 | 18.0 | 14.0 | 0.00 | 0.00 | 0.00 | 38 | |
| 20260504230536 | 55 | 183 | 16.0 | 10.0 | 0.00 | 0.00 | 0.00 | 38 | |
| 20260504230038 | 55 | 194 | 19.0 | 14.0 | 0.00 | 0.00 | 0.00 | 38 | |
| 20260504225541 | 55 | 187 | 21.0 | 19.0 | 0.00 | 0.00 | 0.00 | 39 | |
| 20260504225043 | 55 | 191 | 24.0 | 25.0 | 0.00 | 0.00 | 0.00 | 39 | |
| 20260504224545 | 54 | 180 | 23.0 | 20.0 | 0.00 | 0.00 | 0.00 | 40 | |
| 20260504224048 | 54 | 201 | 19.0 | 28.0 | 0.00 | 0.00 | 0.00 | 41 | |
| 20260504223648 | 54 | 176 | 22.0 | 16.0 | 0.00 | 0.00 | 0.00 | 40 | |
| 20260504223547 | 54 | 176 | 22.0 | 16.0 | 0.00 | 0.00 | 0.00 | 40 | |
| 20260504223049 | 54 | 198 | 19.0 | 23.0 | 0.00 | 0.00 | 0.00 | 41 | |
| 20260504222654 | 54 | 167 | 22.0 | 23.0 | 0.00 | 0.00 | 0.00 | 40 | |
| 20260504222551 | 54 | 167 | 22.0 | 23.0 | 0.00 | 0.00 | 0.00 | 40 | |
| 20260504222139 | 54 | 190 | 21.0 | 21.0 | 0.00 | 0.00 | 0.00 | 39 | |
| 20260504222054 | 54 | 190 | 21.0 | 21.0 | 0.00 | 0.00 | 0.00 | 39 | |
| 20260504221556 | 55 | 204 | 25.0 | 21.0 | 0.00 | 0.00 | 0.00 | 37 | |
| 20260504221058 | 55 | 190 | 10.0 | 15.0 | 0.00 | 0.00 | 0.00 | 36 | |
| 20260504220558 | 55 | 187 | 24.0 | 21.0 | 0.00 | 0.00 | 0.00 | 35 | |
| 20260504220100 | 55 | 205 | 26.0 | 22.0 | 0.00 | 0.00 | 0.00 | 36 | |
| 20260504215602 | 55 | 159 | 22.0 | 20.0 | 0.00 | 0.00 | 0.00 | 37 | |
| 20260504214607 | 55 | 197 | 15.0 | 13.0 | 0.00 | 0.00 | 0.00 | 37 | |
| 20260504213111 | 55 | 203 | 22.0 | 22.0 | 0.00 | 0.00 | 0.00 | 34 | |
| 20260504212613 | 56 | 197 | 11.0 | 18.0 | 0.00 | 0.00 | 0.00 | 34 | |
| 20260504212115 | 55 | 188 | 18.0 | 15.0 | 0.00 | 0.00 | 0.00 | 33 | |
| 20260504211618 | 54 | 212 | 22.0 | 14.0 | 0.00 | 0.00 | 0.00 | 34 | |
| 20260504211120 | 54 | 198 | 22.0 | 20.0 | 0.00 | 0.00 | 0.00 | 37 | |
| 20260504210619 | 54 | 174 | 24.0 | 26.0 | 0.00 | 0.00 | 0.00 | 35 | |
| 20260504210122 | 54 | 173 | 17.0 | 17.0 | 0.00 | 0.00 | 0.00 | 37 | |
| 20260504205624 | 54 | 173 | 19.0 | 19.0 | 0.00 | 0.00 | 0.00 | 38 | |
| 20260504205212 | 54 | 159 | 22.0 | 18.0 | 0.00 | 0.00 | 0.00 | 38 | |
| 20260504205127 | 54 | 159 | 22.0 | 18.0 | 0.00 | 0.00 | 0.00 | 38 | |
| 20260504204629 | 54 | 174 | 24.0 | 23.0 | 0.00 | 0.00 | 0.00 | 37 | |
| 20260504204131 | 54 | 173 | 20.0 | 20.0 | 0.00 | 0.00 | 0.00 | 38 | |
| 20260504203630 | 54 | 167 | 21.0 | 30.0 | 0.00 | 0.00 | 0.00 | 39 | |
| 20260504203133 | 53 | 166 | 17.0 | 12.0 | 0.00 | 0.00 | 0.00 | 39 | |
| 20260504202739 | 53 | 176 | 19.0 | 26.0 | 0.00 | 0.00 | 0.00 | 41 | |
| 20260504202635 | 53 | 176 | 19.0 | 26.0 | 0.00 | 0.00 | 0.00 | 41 | |
| 20260504202137 | 53 | 193 | 20.0 | 9.0 | 0.00 | 0.00 | 0.00 | 41 | |
| 20260504201640 | 53 | 198 | 18.0 | 21.0 | 0.00 | 0.00 | 0.00 | 42 | |
| 20260504201219 | 53 | 203 | 21.0 | 19.0 | 0.00 | 0.00 | 0.00 | 42 | |
| 20260504201142 | 53 | 203 | 21.0 | 19.0 | 0.00 | 0.00 | 0.00 | 42 | |
| 20260504200642 | 53 | 160 | 21.0 | 25.0 | 0.00 | 0.00 | 0.00 | 42 | |
| 20260504195149 | 53 | 190 | 24.0 | 21.0 | 0.00 | 0.00 | 0.00 | 42 | |
| 20260504194650 | 53 | 174 | 21.0 | 19.0 | 0.00 | 0.00 | 0.00 | 41 | |
| 20260504194308 | 53 | 205 | 19.0 | 9.0 | 0.00 | 0.00 | 0.00 | 42 | |
| 20260504194153 | 53 | 205 | 19.0 | 9.0 | 0.00 | 0.00 | 0.00 | 42 | |
| 20260504193653 | 53 | 198 | 20.0 | 22.0 | 0.00 | 0.00 | 0.00 | 42 | |
| 20260504193340 | 53 | 187 | 20.0 | 20.0 | 0.00 | 0.00 | 0.00 | 44 | |
| 20260504193154 | 53 | 187 | 20.0 | 20.0 | 0.00 | 0.00 | 0.00 | 44 | |
| 20260504192735 | 53 | 181 | 16.0 | 20.0 | 0.00 | 0.00 | 0.00 | 44 | |
| 20260504192657 | 53 | 181 | 16.0 | 20.0 | 0.00 | 0.00 | 0.00 | 44 | |
| 20260504192159 | 53 | 159 | 24.0 | 20.0 | 0.00 | 0.00 | 0.00 | 43 | |
| 20260504191701 | 53 | 195 | 16.0 | 21.0 | 0.00 | 0.00 | 0.00 | 43 | |
| 20260504191204 | 52 | 195 | 21.0 | 9.0 | 0.00 | 0.00 | 0.00 | 45 | |
| 20260504190205 | 52 | 198 | 15.0 | 17.0 | 0.00 | 0.00 | 0.00 | 48 | |
| 20260504185708 | 51 | 194 | 18.0 | 13.0 | 0.00 | 0.00 | 0.00 | 49 | |
| 20260504185210 | 51 | 174 | 22.0 | 22.0 | 0.00 | 0.00 | 0.00 | 49 | |
| 20260504184801 | 52 | 187 | 17.0 | 22.0 | 0.00 | 0.00 | 0.00 | 48 | |
| 20260504184713 | 52 | 187 | 17.0 | 22.0 | 0.00 | 0.00 | 0.00 | 48 | |
| 20260504184215 | 52 | 197 | 23.0 | 24.0 | 0.00 | 0.00 | 0.00 | 46 | |
| 20260504183714 | 52 | 201 | 21.0 | 28.0 | 0.00 | 0.00 | 0.00 | 46 | |
| 20260504183216 | 52 | 200 | 18.0 | 22.0 | 0.00 | 0.00 | 0.00 | 48 | |
| 20260504182719 | 52 | 186 | 18.0 | 6.0 | 0.00 | 0.00 | 0.00 | 48 | |
| 20260504182335 | 52 | 200 | 13.0 | 13.0 | 0.00 | 0.00 | 0.00 | 49 | |
| 20260504182221 | 52 | 200 | 13.0 | 13.0 | 0.00 | 0.00 | 0.00 | 49 | |
| 20260504181227 | 51 | 205 | 17.0 | 17.0 | 0.00 | 0.00 | 0.00 | 51 | |
| 20260504180725 | 51 | 184 | 14.0 | 9.0 | 0.00 | 0.00 | 0.00 | 51 | |
| 20260504180227 | 50 | 200 | 9.0 | 13.0 | 0.00 | 0.00 | 0.00 | 51 | |
| 20260504175729 | 50 | 188 | 17.0 | 20.0 | 0.00 | 0.00 | 0.00 | 51 | |
| 20260504174734 | 51 | 183 | 15.0 | 15.0 | 0.00 | 0.00 | 0.00 | 48 | |
| 20260504174236 | 51 | 194 | 14.0 | 14.0 | 0.00 | 0.00 | 0.00 | 48 | |
| 20260504173821 | 51 | 208 | 2.0 | 0.0 | 0.00 | 0.00 | 0.00 | 50 | |
| 20260504173736 | 51 | 208 | 2.0 | 0.0 | 0.00 | 0.00 | 0.00 | 50 | |
| 20260504173238 | 50 | 163 | 9.0 | 3.0 | 0.00 | 0.00 | 0.00 | 49 | |
| 20260504172741 | 50 | 184 | 7.0 | 5.0 | 0.00 | 0.00 | 0.00 | 49 | |
| 20260504172243 | 50 | 198 | 4.0 | 5.0 | 0.00 | 0.00 | 0.00 | 49 | |
| 20260504171745 | 50 | 232 | 4.0 | 3.0 | 0.00 | 0.00 | 0.00 | 50 | |
| 20260504171353 | 50 | 190 | 1.0 | 3.0 | 0.00 | 0.00 | 0.00 | 51 | |
| 20260504171247 | 50 | 190 | 1.0 | 3.0 | 0.00 | 0.00 | 0.00 | 51 | |
| 20260504170747 | 50 | 150 | 1.0 | 0.0 | 0.00 | 0.00 | 0.00 | 52 | |
| 20260504170347 | 50 | 172 | 5.0 | 5.0 | 0.00 | 0.00 | 0.00 | 53 | |
| 20260504170250 | 50 | 172 | 5.0 | 5.0 | 0.00 | 0.00 | 0.00 | 53 | |
| 20260504160311 | 47 | 111 | 2.0 | 0.0 | 0.00 | 0.00 | 0.00 | 65 | |
| 20260504150830 | 45 | 184 | 14.0 | 12.0 | 0.00 | 0.00 | 0.00 | 79 | |
| 20260504150332 | 44 | 190 | 17.0 | 14.0 | 0.00 | 0.00 | 0.00 | 81 | |
| 20260504140851 | 44 | 200 | 13.0 | 14.0 | 0.00 | 0.00 | 0.00 | 83 | |
| 20260504140354 | 43 | 229 | 14.0 | 11.0 | 0.00 | 0.00 | 0.00 | 83 | |
| 20260504130415 | 43 | 226 | 16.0 | 16.0 | 0.00 | 0.00 | 0.00 | 86 | |
| 20260504110458 | 43 | 222 | 12.0 | 9.0 | 0.00 | 0.00 | 0.00 | 91 | |
| 20260504100520 | 43 | 212 | 12.0 | 13.0 | 0.00 | 0.00 | 0.00 | 87 | |
| 20260504081601 | 45 | 198 | 16.0 | 16.0 | 0.00 | 0.00 | 0.00 | 74 | |
| 20260504081100 | 46 | 176 | 12.0 | 10.0 | 0.00 | 0.00 | 0.00 | 74 | |
| 20260504080603 | 46 | 191 | 13.0 | 13.0 | 0.00 | 0.00 | 0.00 | 73 | |
| 20260504070127 | 46 | 217 | 9.0 | 9.0 | 0.00 | 0.00 | 0.00 | 74 | |
| 20260504060148 | 47 | 156 | 10.0 | 18.0 | 0.00 | 0.00 | 0.00 | 76 | |
| 20260504050707 | 48 | 208 | 28.0 | 28.0 | 0.00 | 0.00 | 0.00 | 76 | |
| 20260504050209 | 48 | 207 | 23.0 | 25.0 | 0.00 | 0.00 | 0.00 | 76 | |
| 20260504045712 | 48 | 198 | 24.0 | 33.0 | 0.00 | 0.00 | 0.00 | 76 | |
| 20260504045214 | 48 | 228 | 25.0 | 32.0 | 0.00 | 0.00 | 0.00 | 78 | |
| 20260504044803 | 48 | 193 | 28.0 | 24.0 | 0.00 | 0.00 | 0.00 | 78 | |
| 20260504044716 | 48 | 193 | 28.0 | 24.0 | 0.00 | 0.00 | 0.00 | 78 | |
| 20260504044216 | 48 | 193 | 24.0 | 33.0 | 0.00 | 0.00 | 0.00 | 77 | |
| 20260504043718 | 48 | 217 | 26.0 | 28.0 | 0.00 | 0.00 | 0.00 | 77 | |
| 20260504042723 | 49 | 207 | 26.0 | 24.0 | 0.00 | 0.00 | 0.00 | 76 | |
| 20260504042225 | 49 | 208 | 24.0 | 27.0 | 0.00 | 0.00 | 0.00 | 73 | |
| 20260504041727 | 49 | 201 | 20.0 | 17.0 | 0.00 | 0.00 | 0.00 | 72 | |
| 20260504041226 | 49 | 203 | 23.0 | 26.0 | 0.00 | 0.00 | 0.00 | 71 | |
| 20260504040729 | 49 | 214 | 18.0 | 17.0 | 0.00 | 0.00 | 0.00 | 70 | |
| 20260504040231 | 50 | 214 | 18.0 | 22.0 | 0.00 | 0.00 | 0.00 | 70 | |
| 20260504035733 | 50 | 218 | 17.0 | 15.0 | 0.00 | 0.00 | 0.00 | 69 | |
| 20260504035236 | 50 | 211 | 17.0 | 18.0 | 0.00 | 0.00 | 0.00 | 68 | |
| 20260504034738 | 50 | 214 | 20.0 | 25.0 | 0.00 | 0.00 | 0.00 | 68 | |
| 20260504034238 | 50 | 193 | 18.0 | 12.0 | 0.00 | 0.00 | 0.00 | 67 | |
| 20260504033739 | 50 | 190 | 20.0 | 21.0 | 0.00 | 0.00 | 0.00 | 67 | |
| 20260504033242 | 51 | 201 | 15.0 | 20.0 | 0.00 | 0.00 | 0.00 | 65 | |
| 20260504032744 | 51 | 198 | 15.0 | 21.0 | 0.00 | 0.00 | 0.00 | 65 | |
| 20260504032246 | 51 | 177 | 13.0 | 11.0 | 0.00 | 0.00 | 0.00 | 65 | |
| 20260504031749 | 51 | 176 | 12.0 | 17.0 | 0.00 | 0.00 | 0.00 | 65 | |
| 20260504031249 | 51 | 143 | 18.0 | 11.0 | 0.00 | 0.00 | 0.00 | 65 | |
| 20260504030750 | 52 | 169 | 16.0 | 14.0 | 0.00 | 0.00 | 0.00 | 66 | |
| 20260504030253 | 52 | 187 | 19.0 | 16.0 | 0.00 | 0.00 | 0.00 | 66 | |
| 20260504025755 | 52 | 183 | 15.0 | 17.0 | 0.00 | 0.00 | 0.00 | 66 | |
| 20260504025257 | 52 | 180 | 14.0 | 16.0 | 0.00 | 0.00 | 0.00 | 66 | |
| 20260504024801 | 52 | 169 | 11.0 | 17.0 | 0.00 | 0.00 | 0.00 | 66 | |
| 20260504024259 | 52 | 190 | 13.0 | 8.0 | 0.00 | 0.00 | 0.00 | 66 | |
| 20260504023801 | 52 | 188 | 10.0 | 11.0 | 0.00 | 0.00 | 0.00 | 65 | |
| 20260504023303 | 52 | 184 | 11.0 | 12.0 | 0.00 | 0.00 | 0.00 | 65 | |
| 20260504022902 | 52 | 197 | 13.0 | 12.0 | 0.00 | 0.00 | 0.00 | 64 | |
| 20260504022806 | 52 | 197 | 13.0 | 12.0 | 0.00 | 0.00 | 0.00 | 64 | |
| 20260504022308 | 53 | 174 | 10.0 | 8.0 | 0.00 | 0.00 | 0.00 | 64 | |
| 20260504021810 | 53 | 169 | 15.0 | 12.0 | 0.00 | 0.00 | 0.00 | 64 | |
| 20260504021309 | 53 | 190 | 12.0 | 10.0 | 0.00 | 0.00 | 0.00 | 63 | |
| 20260504020812 | 53 | 205 | 16.0 | 15.0 | 0.00 | 0.00 | 0.00 | 62 | |
| 20260504020314 | 54 | 181 | 15.0 | 18.0 | 0.00 | 0.00 | 0.00 | 61 | |
| 20260504015816 | 54 | 165 | 10.0 | 13.0 | 0.00 | 0.00 | 0.00 | 58 | |
| 20260504015319 | 55 | 143 | 13.0 | 9.0 | 0.00 | 0.00 | 0.00 | 56 | |
| 20260504014821 | 55 | 139 | 12.0 | 12.0 | 0.00 | 0.00 | 0.00 | 55 | |
| 20260504014320 | 56 | 163 | 10.0 | 13.0 | 0.00 | 0.00 | 0.00 | 54 | |
| 20260504013822 | 56 | 187 | 13.0 | 13.0 | 0.00 | 0.00 | 0.00 | 52 | |
| 20260504013325 | 56 | 172 | 9.0 | 14.0 | 0.00 | 0.00 | 0.00 | 52 | |
| 20260504012827 | 57 | 179 | 6.0 | 0.0 | 0.00 | 0.00 | 0.00 | 51 | |
| 20260504012329 | 57 | 180 | 12.0 | 6.0 | 0.00 | 0.00 | 0.00 | 51 | |
| 20260504011832 | 57 | 214 | 5.0 | 8.0 | 0.00 | 0.00 | 0.00 | 50 | |
| 20260504011331 | 57 | 180 | 8.0 | 7.0 | 0.00 | 0.00 | 0.00 | 49 | |
| 20260504010833 | 57 | 197 | 9.0 | 18.0 | 0.00 | 0.00 | 0.00 | 48 | |
| 20260504010335 | 57 | 194 | 18.0 | 19.0 | 0.00 | 0.00 | 0.00 | 47 | |
| 20260504005927 | 58 | 188 | 11.0 | 13.0 | 0.00 | 0.00 | 0.00 | 46 | |
| 20260504005838 | 58 | 188 | 11.0 | 13.0 | 0.00 | 0.00 | 0.00 | 46 | |
| 20260504005428 | 58 | 183 | 8.0 | 15.0 | 0.00 | 0.00 | 0.00 | 47 | |
| 20260504005340 | 58 | 183 | 8.0 | 15.0 | 0.00 | 0.00 | 0.00 | 47 | |
| 20260504004935 | 58 | 187 | 8.0 | 9.0 | 0.00 | 0.00 | 0.00 | 47 | |
| 20260504004842 | 58 | 187 | 8.0 | 9.0 | 0.00 | 0.00 | 0.00 | 47 | |
| 20260504004342 | 58 | 191 | 13.0 | 13.0 | 0.00 | 0.00 | 0.00 | 46 | |
| 20260504003925 | 59 | 208 | 10.0 | 19.0 | 0.00 | 0.00 | 0.00 | 46 | |
| 20260504003844 | 59 | 208 | 10.0 | 19.0 | 0.00 | 0.00 | 0.00 | 46 | |
| 20260504003349 | 58 | 184 | 9.0 | 8.0 | 0.00 | 0.00 | 0.00 | 46 | |
| 20260504002938 | 59 | 187 | 16.0 | 7.0 | 0.00 | 0.00 | 0.00 | 45 | |
| 20260504002848 | 59 | 187 | 16.0 | 7.0 | 0.00 | 0.00 | 0.00 | 45 | |
| 20260504002351 | 59 | 177 | 14.0 | 11.0 | 0.00 | 0.00 | 0.00 | 44 | |
| 20260504001853 | 59 | 201 | 8.0 | 12.0 | 0.00 | 0.00 | 0.00 | 44 | |
| 20260504000854 | 59 | 165 | 16.0 | 10.0 | 0.00 | 0.00 | 0.00 | 44 | |
| 20260504000446 | 59 | 179 | 13.0 | 14.0 | 0.00 | 0.00 | 0.00 | 45 | |
| 20260504000357 | 59 | 179 | 13.0 | 14.0 | 0.00 | 0.00 | 0.00 | 45 | |
| 20260503235402 | 59 | 186 | 18.0 | 18.0 | 0.00 | 0.00 | 0.00 | 45 | |
| 20260503234904 | 59 | 194 | 15.0 | 11.0 | 0.00 | 0.00 | 0.00 | 46 | |
| 20260503234403 | 59 | 226 | 17.0 | 14.0 | 0.00 | 0.00 | 0.00 | 45 | |
| 20260503233906 | 59 | 215 | 20.0 | 27.0 | 0.00 | 0.00 | 0.00 | 45 | |
| 20260503233410 | 59 | 203 | 22.0 | 19.0 | 0.00 | 0.00 | 0.00 | 43 | |
| 20260503233407 | 59 | 205 | 23.0 | 28.0 | 0.00 | 0.00 | 0.00 | 45 | |
| 20260503232910 | 59 | 203 | 22.0 | 19.0 | 0.00 | 0.00 | 0.00 | 43 | |
| 20260503232412 | 59 | 169 | 23.0 | 13.0 | 0.00 | 0.00 | 0.00 | 42 | |
| 20260503231914 | 60 | 203 | 23.0 | 16.0 | 0.00 | 0.00 | 0.00 | 42 | |
| 20260503231654 | 61 | 195 | 19.0 | 19.0 | 0.00 | 0.00 | 0.00 | 42 |